Change the Weather History Date:

Sunday, October 28, 2012

  Actual Average Record
Temperature  
Mean Temperature 11 °F -  
Max Temperature 19 °F 17 °F 35 °F (2013)
Min Temperature 3 °F 9 °F -11 °F (1984)
Degree Days  
Heating Degree Days 54    
Moisture  
Dew Point 8 °F    
Average Humidity 88    
Maximum Humidity 100    
Minimum Humidity 79    
Precipitation  
Precipitation 0.00 in - - ()
Sea Level Pressure  
Sea Level Pressure 30.21 in    
Wind  
Wind Speed 0 mph (NNE)    
Max Wind Speed 4 mph    
Max Gust Speed -    
Visibility 7 miles    
Events      
Averages and records for this station are not official NWS values.
T = Trace of Precipitation, MM = Missing Value Source: NWS Daily Summary

Daily Weather History Graph

Daily Weather History Graph

Search for Another Location

Airport or City:

Trip Planner

Search our weather history database for the weather conditions in past years. The results will help you decide how hot, cold, wet, or windy it might be!

Date:

Astronomy

Oct. 28, 2012 Rise Set
Actual Time 10:22 AM AKDT 6:06 PM AKDT
Civil Twilight 9:22 AM AKDT 7:06 PM AKDT
Nautical Twilight 8:18 AM AKDT 8:10 PM AKDT
Astronomical Twilight 7:16 AM AKDT 9:11 PM AKDT
Moon 5:28 PM AKDT (10/28) 9:20 AM AKDT (10/28)
Length of Visible Light 9h 44m
Length of Day
7h 44m
Waxing Gibbous, 99% of the Moon is Illuminated
Oct 28
Waxing Gibbous
Oct 29
Full
Nov 6
Last Quarter
Nov 13
New
Nov 20
First Quarter

Hourly Weather History & Observations

Time (AKDT) Temp. Windchill Dew Point Humidity Pressure Visibility Wind Dir Wind Speed Gust Speed Precip Events Conditions
12:16 AM 14.0 °F - 12.2 °F 93% 30.24 in 0.8 mi Calm Calm - N/A   Overcast
12:36 AM 14.0 °F - 10.4 °F 86% 30.24 in 0.8 mi Calm Calm - N/A   Overcast
12:56 AM 14.0 °F - 10.4 °F 86% 30.24 in 1.2 mi Calm Calm - N/A   Overcast
1:16 AM 14.0 °F - 10.4 °F 86% 30.25 in 0.5 mi Calm Calm - N/A   Overcast
1:36 AM 14.0 °F - 10.4 °F 86% 30.25 in 0.5 mi Calm Calm - N/A   Overcast
1:56 AM 14.0 °F - 10.4 °F 86% 30.25 in 0.5 mi Calm Calm - N/A   Overcast
2:16 AM 14.0 °F - 10.4 °F 86% 30.25 in 1.0 mi Calm Calm - N/A   Overcast
2:36 AM 12.2 °F - 10.4 °F 92% 30.25 in 1.2 mi Calm Calm - N/A   Overcast
2:56 AM 12.2 °F - 10.4 °F 92% 30.25 in 1.2 mi Calm Calm - N/A   Overcast
3:16 AM 12.2 °F - 10.4 °F 92% 30.25 in 0.8 mi Calm Calm - N/A   Overcast
3:36 AM 12.2 °F - 10.4 °F 92% 30.25 in 0.8 mi Calm Calm - N/A   Overcast
3:56 AM 12.2 °F - 8.6 °F 85% 30.25 in 1.0 mi Calm Calm - N/A   Overcast
4:16 AM 12.2 °F - 8.6 °F 85% 30.25 in 1.8 mi Calm Calm - N/A   Overcast
4:36 AM 10.4 °F - 6.8 °F 85% 30.25 in 7.0 mi Calm Calm - N/A   Overcast
4:56 AM 10.4 °F - 6.8 °F 85% 30.25 in 10.0 mi Calm Calm - N/A   Scattered Clouds
5:16 AM 8.6 °F - 5.0 °F 85% 30.25 in 10.0 mi Calm Calm - N/A   Scattered Clouds
5:36 AM 8.6 °F - 6.8 °F 92% 30.25 in 10.0 mi Calm Calm - N/A   Mostly Cloudy
5:56 AM 8.6 °F - 3.2 °F 79% 30.26 in 10.0 mi Calm Calm - N/A   Overcast
6:16 AM 8.6 °F - 3.2 °F 79% 30.26 in 7.0 mi Calm Calm - N/A   Overcast
6:36 AM 8.6 °F - 3.2 °F 79% 30.26 in 4.0 mi Calm Calm - N/A   Overcast
6:56 AM 6.8 °F - 3.2 °F 85% 30.25 in 10.0 mi Calm Calm - N/A   Scattered Clouds
7:16 AM 6.8 °F - 1.4 °F 79% 30.25 in 10.0 mi Calm Calm - N/A   Clear
7:36 AM 3.2 °F - -0.4 °F 85% 30.25 in 10.0 mi Calm Calm - N/A   Clear
7:56 AM 3.2 °F - 1.4 °F 92% 30.24 in 10.0 mi Calm Calm - N/A   Clear
8:16 AM 3.2 °F - -0.4 °F 85% 30.24 in 10.0 mi Calm Calm - N/A   Clear
8:36 AM 3.2 °F - -0.4 °F 85% 30.24 in 10.0 mi Calm Calm - N/A   Scattered Clouds
8:56 AM 3.2 °F - -0.4 °F 85% 30.24 in 1.5 mi Calm Calm - N/A   Overcast
9:16 AM 5.0 °F - 1.4 °F 85% 30.24 in 0.5 mi Calm Calm - N/A   Overcast
9:36 AM 5.0 °F - 1.4 °F 85% 30.24 in 0.2 mi Calm Calm - N/A   Overcast
9:56 AM 5.0 °F - 1.4 °F 85% 30.24 in 0.5 mi Calm Calm - N/A   Overcast
10:16 AM 6.8 °F - 1.4 °F 79% 30.24 in 10.0 mi Calm Calm - N/A   Partly Cloudy
10:36 AM 6.8 °F - 1.4 °F 79% 30.24 in 3.0 mi Calm Calm - N/A   Scattered Clouds
10:56 AM 5.0 °F - 1.4 °F 85% 30.24 in 0.5 mi Calm Calm - N/A   Overcast
11:16 AM 3.2 °F - -0.4 °F 85% 30.24 in 0.2 mi Calm Calm - N/A   Overcast
11:36 AM 5.0 °F - 1.4 °F 85% 30.24 in 1.5 mi Calm Calm - N/A   Overcast
11:56 AM 6.8 °F - 3.2 °F 85% 30.24 in 5.0 mi Calm Calm - N/A   Overcast
12:16 PM 6.8 °F - 3.2 °F 85% 30.24 in 10.0 mi Calm Calm - N/A   Mostly Cloudy
12:36 PM 6.8 °F - 6.8 °F 100% 30.24 in 10.0 mi Calm Calm - N/A   Partly Cloudy
12:56 PM 8.6 °F - 6.8 °F 92% 30.24 in 10.0 mi Calm Calm - N/A   Clear
1:16 PM 8.6 °F - 6.8 °F 92% 30.24 in 10.0 mi Calm Calm - N/A   Clear
1:36 PM 8.6 °F - 5.0 °F 85% 30.24 in 10.0 mi Calm Calm - N/A   Clear
1:56 PM 8.6 °F - 6.8 °F 92% 30.23 in 10.0 mi Calm Calm - N/A   Clear
2:16 PM 8.6 °F - 6.8 °F 92% 30.23 in 10.0 mi Calm Calm - N/A   Clear
2:36 PM 10.4 °F - 10.4 °F 100% 30.22 in 10.0 mi Calm Calm - N/A   Clear
2:56 PM 12.2 °F - 8.6 °F 85% 30.22 in 10.0 mi Calm Calm - N/A   Clear
3:16 PM 12.2 °F - 8.6 °F 85% 30.21 in 10.0 mi Calm Calm - N/A   Clear
3:36 PM 10.4 °F - 8.6 °F 92% 30.21 in 8.0 mi Calm Calm - N/A   Clear
3:56 PM 10.4 °F - 8.6 °F 92% 30.21 in 10.0 mi Calm Calm - N/A   Clear
4:16 PM 10.4 °F - 10.4 °F 100% 30.20 in 8.0 mi Calm Calm - N/A   Clear
4:36 PM 12.2 °F - 10.4 °F 92% 30.21 in 10.0 mi Calm Calm - N/A   Clear
4:56 PM 12.2 °F - 8.6 °F 85% 30.20 in 10.0 mi Calm Calm - N/A   Mostly Cloudy
5:16 PM 12.2 °F - 8.6 °F 85% 30.19 in 10.0 mi Calm Calm - N/A   Mostly Cloudy
5:36 PM 10.4 °F - 6.8 °F 85% 30.19 in 10.0 mi Calm Calm - N/A   Partly Cloudy
5:56 PM 10.4 °F - 6.8 °F 85% 30.18 in 10.0 mi Calm Calm - N/A   Clear
6:16 PM 8.6 °F - 5.0 °F 85% 30.18 in 10.0 mi Calm Calm - N/A   Partly Cloudy
6:36 PM 10.4 °F - 6.8 °F 85% 30.17 in 10.0 mi Calm Calm - N/A   Mostly Cloudy
6:56 PM 10.4 °F - 6.8 °F 85% 30.17 in 10.0 mi Calm Calm - N/A   Overcast
7:16 PM 12.2 °F - 10.4 °F 92% 30.17 in 10.0 mi Calm Calm - N/A   Overcast
7:36 PM 19.4 °F - 19.4 °F 100% 30.16 in 10.0 mi Calm Calm - N/A   Overcast
7:56 PM 17.6 °F - 14.0 °F 86% 30.15 in 10.0 mi Calm Calm - N/A   Overcast
8:16 PM 15.8 °F 10.2 °F 12.2 °F 86% 30.15 in 10.0 mi NNE 3.5 mph - N/A   Mostly Cloudy
8:36 PM 15.8 °F - 12.2 °F 86% 30.14 in 10.0 mi Calm Calm - N/A   Overcast
8:56 PM 15.8 °F - 15.8 °F 100% 30.14 in 10.0 mi Calm Calm - N/A   Overcast
9:16 PM 17.6 °F - 14.0 °F 86% 30.14 in 10.0 mi Calm Calm - N/A   Overcast
9:36 PM 17.6 °F - 14.0 °F 86% 30.14 in 10.0 mi Calm Calm - N/A   Overcast
9:56 PM 19.4 °F - 19.4 °F 100% 30.13 in 10.0 mi Calm Calm - N/A   Mostly Cloudy
10:16 PM 19.4 °F - 17.6 °F 93% 30.12 in 10.0 mi Calm Calm - N/A   Overcast
10:36 PM 17.6 °F - 14.0 °F 86% 30.12 in 10.0 mi Calm Calm - N/A   Mostly Cloudy
10:56 PM 15.8 °F - 12.2 °F 86% 30.11 in 10.0 mi Calm Calm - N/A   Overcast
11:16 PM 15.8 °F - 12.2 °F 86% 30.11 in 10.0 mi Calm Calm - N/A   Overcast
11:36 PM 15.8 °F - 14.0 °F 93% 30.10 in 10.0 mi Calm Calm - N/A   Overcast
11:56 PM 15.8 °F - 12.2 °F 86% 30.09 in 10.0 mi Calm Calm - N/A   Overcast